Lapse_Rate
6.7 6.6 6.5 5.4 6.0 6.0 6.1 6.0 5.9 6.0 6.2 6.7 6.7 7.5 7.3 6.9 6.9 6.9 6.9 7.1 7.2 7.0 7.0 7.0 6.9 6.8 6.8 6.7 6.7 6.6 6.5 6.4 6.2 6.2 5.8 5.7 5.8 5.8 5.8 5.9 5.8 5.8 5.9
6.4 6.4 6.3 5.7 5.7 5.9 5.5 5.2 5.2 5.9 6.7 6.4 6.7 7.4 7.4 7.0 7.0 7.0 7.1 6.9 7.0 6.9 7.0 7.2 7.1 6.9 6.8 6.7 6.4 6.3 6.2 6.2 6.0 6.0 5.6 5.4 5.1 5.4 5.4 5.7 5.7 5.8 5.7
6.3 6.1 6.2 5.8 5.6 6.0 5.7 5.2 5.3 5.5 5.9 6.1 6.3 6.6 6.3 6.0 6.5 6.4 6.8 6.4 6.4 6.4 6.8 7.1 7.2 6.9 6.8 6.6 6.4 6.2 6.1 5.8 5.5 5.3 5.3 5.3 5.1 5.0 5.4 5.3 5.3 5.4 5.6
6.3 6.3 6.2 6.4 6.2 5.9 5.9 5.6 5.5 5.3 5.7 5.2 5.5 5.8 5.3 5.9 5.9 5.9 6.2 6.2 6.0 6.4 6.7 6.8 6.7 6.5 6.2 6.0 6.0 5.9 5.6 5.3 5.2 5.4 5.1 5.0 5.1 5.3 5.5 5.6 5.6 5.4 5.2
6.5 6.3 6.6 6.6 6.4 6.4 5.7 5.4 5.5 5.3 5.2 5.6 5.2 5.7 5.9 5.7 5.2 5.1 5.8 6.2 6.0 6.7 6.6 6.6 6.5 6.0 5.7 5.6 5.5 5.0 5.5 5.8 5.7 5.6 5.5 5.7 5.7 5.3 5.4 5.8 5.6 5.5 5.4
6.2 6.4 6.7 7.1 7.0 6.4 5.7 5.5 5.6 5.4 5.6 5.8 6.0 6.2 6.2 6.0 5.9 6.3 6.4 6.1 6.4 6.7 6.5 6.0 5.7 5.7 5.3 6.2 6.4 6.3 6.1 6.0 6.1 6.0 5.7 5.6 5.6 5.4 5.5 5.4 5.5 5.6 5.4
6.2 6.5 6.8 6.9 6.9 6.5 6.2 6.3 6.2 6.0 6.1 6.0 5.2 6.1 6.1 6.1 5.6 5.9 6.7 6.6 6.6 6.5 6.5 6.4 6.3 6.1 6.1 6.0 6.0 6.0 5.9 5.9 5.8 5.6 5.6 5.5 5.6 5.6 5.4 5.4 5.4 5.2 5.2
6.2 6.5 6.7 6.5 6.7 6.5 6.5 6.4 6.5 6.6 6.4 6.4 6.2 6.2 5.7 6.0 6.3 6.6 6.7 6.7 6.6 6.6 6.4 6.3 6.1 5.8 5.9 5.9 6.0 6.0 5.8 5.9 5.8 5.5 5.3 5.3 5.4 5.5 5.5 5.5 5.4 5.2 5.3
6.2 6.5 6.5 6.6 6.5 6.4 6.7 6.9 7.0 6.9 6.6 6.4 6.4 6.4 6.4 6.5 6.6 6.7 6.6 6.5 6.5 6.4 6.4 6.3 6.2 6.1 6.1 6.1 6.0 5.8 5.6 5.4 5.3 5.2 5.4 5.5 5.7 5.8 5.7 5.5 5.5 5.5 5.5
5.7 6.0 5.9 6.4 6.3 6.6 6.8 6.8 6.8 6.6 6.4 6.4 6.6 6.6 6.6 6.6 6.7 6.7 6.7 6.6 6.6 6.5 6.3 6.2 5.9 5.9 5.9 5.8 5.5 5.4 5.2 5.2 5.4 5.4 5.6 5.7 6.0 6.2 6.2 6.1 6.1 6.0 5.7
6.0 5.4 5.4 6.0 6.5 6.6 6.6 6.6 6.8 6.9 6.8 6.5 6.6 6.5 6.5 6.6 6.7 6.6 6.5 6.4 6.3 6.1 6.0 5.9 5.8 5.6 5.5 5.6 5.5 5.1 5.0 5.3 5.6 5.6 5.9 6.1 6.2 6.4 6.5 6.4 6.3 6.2 6.0
6.5 6.4 6.3 6.4 6.6 6.5 6.5 6.6 6.4 6.4 6.6 6.7 6.7 6.5 6.5 6.6 6.5 6.5 6.4 6.3 6.2 6.0 5.8 5.7 5.6 5.4 5.3 5.4 5.2 5.1 5.5 6.0 6.1 6.2 6.2 6.4 6.4 6.5 6.7 6.6 6.0 6.0 6.1
6.8 7.1 7.0 6.8 6.6 6.6 6.5 6.6 6.5 6.5 6.6 6.4 6.3 6.2 6.3 6.4 6.3 6.2 6.1 5.9 5.7 5.7 5.7 5.6 5.4 5.3 5.1 5.4 5.7 5.9 6.0 6.1 6.2 6.3 6.2 6.3 6.3 6.4 6.5 6.5 6.5 6.5 6.5
7.5 7.4 7.2 7.0 6.7 6.5 6.7 6.9 6.5 6.5 6.6 6.3 6.1 6.1 6.1 6.2 6.2 6.0 5.9 5.8 5.7 5.7 5.5 5.3 5.2 5.2 5.4 5.7 5.9 6.0 5.9 6.0 6.0 6.1 6.2 6.2 6.2 6.2 6.3 6.3 6.4 6.5 6.4
6.9 7.1 7.0 6.8 6.8 7.0 6.8 6.6 6.6 6.4 6.0 6.0 6.0 6.0 6.1 6.1 6.0 6.0 6.1 5.9 5.7 5.7 5.4 5.3 5.3 5.5 5.5 5.8 5.8 5.8 5.8 5.9 5.9 5.9 5.9 5.9 6.0 6.1 6.2 6.3 6.3 6.4 6.5
6.6 6.6 6.7 6.7 6.6 6.4 6.3 6.3 6.4 6.2 6.1 5.9 5.7 5.6 5.8 6.0 6.2 6.0 6.1 5.9 5.9 5.8 5.7 5.3 5.3 5.3 5.5 5.6 5.8 5.7 5.7 5.8 5.8 5.9 6.0 6.0 6.0 6.2 6.3 6.4 6.4 6.4 6.4
6.6 6.8 6.8 6.8 6.8 6.8 6.7 6.5 6.4 6.5 6.6 6.4 6.2 6.1 6.1 6.2 6.3 6.2 6.1 6.0 5.9 5.8 5.6 5.3 5.4 5.5 5.6 5.8 5.8 5.6 5.6 5.7 5.7 5.8 5.9 5.9 6.0 6.3 6.5 6.5 6.5 6.5 6.4
6.7 6.9 7.1 7.0 7.0 7.2 7.1 7.0 6.9 6.8 6.7 6.6 6.5 6.5 6.4 6.4 6.4 6.3 6.3 6.1 6.0 5.8 5.5 5.5 5.6 5.7 5.7 5.7 5.6 5.6 5.7 5.7 5.8 5.8 5.8 6.0 6.2 6.5 6.7 6.8 6.7 6.6 6.5
7.1 7.3 7.5 7.5 7.7 7.6 7.5 7.4 7.2 7.1 6.9 6.9 6.8 6.6 6.5 6.4 6.5 6.5 6.3 6.1 5.9 5.7 5.5 5.6 5.8 5.8 5.8 5.8 5.7 5.8 5.8 5.7 5.7 6.0 6.0 6.0 6.3 6.6 7.0 7.1 7.0 6.9 6.5
7.4 7.7 7.7 7.6 7.7 7.6 7.5 7.5 7.5 7.3 7.1 6.9 6.8 6.9 6.8 6.8 6.7 6.5 6.4 6.3 6.0 5.8 5.7 5.8 5.9 6.0 5.9 5.9 5.9 5.9 5.8 5.8 5.9 6.0 6.0 6.2 6.4 6.7 6.9 7.0 6.7 6.5 6.4
7.1 7.2 7.1 7.2 7.3 7.4 7.3 7.1 7.0 7.0 7.2 6.9 6.9 6.8 6.8 6.7 6.3 6.2 6.1 6.0 6.0 5.8 5.9 6.1 6.0 6.0 6.1 6.2 6.0 6.1 6.0 6.0 6.0 5.9 5.9 6.2 6.2 6.4 6.9 6.6 6.1 6.2 6.3
6.7 6.8 6.9 6.7 6.8 7.0 7.0 7.1 7.0 7.0 7.0 6.7 6.7 6.5 6.4 6.5 6.5 6.2 6.2 6.2 6.0 6.0 6.0 6.1 6.1 6.2 6.2 6.2 6.3 6.3 6.2 6.1 6.0 5.9 5.9 6.2 6.0 5.8 5.5 5.2 5.5 5.9 5.9
6.6 6.8 6.9 6.7 6.5 6.6 6.7 6.6 6.7 6.7 6.8 6.8 6.7 6.6 6.7 6.4 6.4 6.4 6.3 6.2 6.2 6.2 6.2 6.3 6.2 6.2 6.2 6.2 6.4 6.3 6.1 6.2 6.4 6.2 6.2 6.1 5.9 5.4 5.1 5.2 5.3 5.6 5.7
6.2 6.2 6.3 6.4 6.3 6.3 6.4 6.5 6.5 6.5 6.6 6.6 6.6 6.6 6.5 6.5 6.6 6.5 6.4 6.3 6.2 6.2 6.3 6.0 5.6 5.4 6.0 6.3 6.2 6.1 6.3 6.5 6.6 6.6 6.3 6.0 5.8 5.4 5.1 5.3 5.3 5.3 5.2
6.2 6.0 5.9 5.9 6.0 6.0 6.2 6.5 6.6 6.4 6.7 6.7 6.7 6.7 6.5 6.6 6.5 6.5 6.4 6.2 6.1 6.0 5.6 5.4 5.2 5.4 5.3 5.7 6.1 6.1 6.3 6.5 6.6 6.7 6.2 6.0 5.9 5.5 5.2 5.3 5.2 5.1 5.2
6.4 6.4 6.2 6.2 5.9 6.0 6.0 6.1 6.2 6.4 6.5 6.6 6.6 6.5 6.4 6.3 6.3 6.4 6.3 5.9 5.8 5.8 5.7 5.8 5.5 5.6 5.5 5.9 6.4 6.2 6.2 6.4 6.4 6.5 6.0 6.1 5.9 5.6 5.4 5.3 5.3 5.1 5.1
Wind_Speed
2 2 4 5 11 14 16 18 17 16 12 10 9 7 8 3 3 7 15 16 14 15 14 9 8 10 6 6 5 3 4 3 1 1 2 2 2 1 1 3 3 3 4
1 2 5 5 6 8 12 8 14 16 13 10 8 3 5 3 4 9 11 14 16 16 12 9 5 7 4 5 5 3 2 1 2 0 2 3 1 2 3 3 1 2 2
1 3 5 7 5 8 11 7 8 13 12 10 7 4 4 3 1 3 3 5 12 13 13 11 9 6 4 4 4 5 4 2 2 2 1 2 3 2 2 3 2 1 3
2 2 4 5 7 7 7 11 7 14 13 12 7 10 4 4 3 3 3 5 10 12 12 9 7 5 3 3 3 3 3 1 3 1 3 3 3 3 3 1 1 2 2
4 1 2 6 6 5 11 8 7 7 10 14 13 11 12 8 4 4 7 7 6 8 9 8 6 3 1 3 7 6 5 4 3 5 2 2 3 4 3 2 1 0 2
6 2 2 5 6 4 4 4 8 7 10 10 12 14 14 10 7 6 7 5 3 4 8 14 10 11 8 4 2 2 4 3 2 1 2 2 2 2 3 3 3 3 3
8 4 4 2 6 8 9 10 11 10 8 12 9 9 6 10 11 9 5 6 4 2 3 2 3 3 5 5 6 4 3 2 2 3 3 3 4 3 3 3 3 4 2
9 5 4 2 4 6 8 9 9 8 7 7 7 6 8 4 4 5 5 4 3 4 5 5 6 6 6 5 5 3 2 1 2 5 4 3 3 2 2 3 2 4 3
5 4 5 4 4 6 7 8 7 5 4 6 4 5 5 6 6 6 5 4 5 4 6 6 6 5 5 5 4 3 2 1 0 2 3 3 2 3 3 5 5 5 5
5 5 4 5 4 4 4 5 6 8 4 4 4 5 6 6 6 6 7 6 5 4 6 5 6 5 6 6 5 3 3 3 1 1 3 5 3 3 3 4 4 4 6
5 4 5 3 3 5 5 4 5 5 6 6 5 6 6 6 6 6 5 6 6 6 6 6 7 6 5 5 5 5 4 4 3 3 3 3 3 3 3 2 2 2 3
6 4 3 4 3 6 5 6 5 5 5 5 6 7 7 6 7 7 6 6 7 6 6 6 7 7 6 6 5 4 4 3 3 4 4 4 3 5 4 3 3 2 3
7 6 5 2 3 5 4 5 5 6 6 5 7 7 6 7 7 6 6 6 7 7 6 7 7 6 6 5 5 4 4 4 4 4 4 4 4 4 3 3 3 2 2
6 5 5 5 5 4 6 6 6 5 6 6 7 7 7 7 7 6 6 7 6 7 6 7 6 6 5 5 5 5 5 5 5 5 5 5 5 5 4 3 4 2 2
8 7 6 5 5 5 5 5 5 6 5 6 7 7 7 7 7 7 6 6 6 6 6 7 6 6 5 4 5 5 5 5 4 4 4 3 5 6 5 2 3 2 2
8 7 6 5 5 5 4 4 6 6 5 6 7 7 7 7 7 6 6 6 7 6 7 6 6 6 3 6 6 5 4 3 3 4 4 4 4 5 6 3 3 3 2
8 8 6 2 2 3 5 6 5 5 6 7 6 6 6 7 6 6 6 6 6 6 6 5 5 5 3 5 6 6 3 3 3 3 4 4 2 3 3 4 5 5 4
6 8 7 6 1 3 3 6 6 6 6 6 6 6 6 6 6 6 6 5 4 5 5 4 4 3 3 3 2 3 2 3 4 3 3 4 4 4 3 2 3 3 3
6 5 5 5 3 5 5 6 6 6 6 6 6 6 6 6 6 6 6 4 5 4 3 3 4 2 2 2 3 3 1 2 4 3 3 3 4 6 1 1 3 3 3
5 5 6 3 3 4 5 5 4 5 5 5 6 6 6 6 6 6 5 3 3 4 4 4 3 2 3 4 3 2 1 2 2 3 2 4 4 6 3 2 1 3 2
8 7 6 5 1 4 6 6 6 5 4 5 5 5 5 6 6 6 3 4 5 5 4 3 2 3 5 4 5 5 3 3 2 2 3 2 4 6 5 5 3 2 1
6 7 6 5 5 2 5 5 4 2 5 6 5 6 6 4 4 6 4 5 5 5 3 2 2 3 3 5 7 7 7 7 4 3 2 3 5 5 6 4 6 5 4
5 4 5 5 6 6 4 5 2 4 5 5 5 5 5 4 5 6 6 3 4 3 2 2 2 3 3 3 7 9 10 9 4 3 5 6 6 8 6 5 6 4 3
5 4 5 6 7 7 8 6 4 3 4 4 4 4 5 5 4 3 3 3 3 3 3 3 3 3 3 3 3 3 4 7 4 4 3 3 5 6 5 4 1 1 3
4 4 5 5 6 6 6 6 5 4 4 4 3 3 3 4 4 4 4 4 3 4 3 4 3 3 3 3 5 5 3 3 5 3 1 1 1 2 2 2 2 1 2
4 5 5 6 5 5 6 6 6 5 4 3 1 1 2 3 3 3 3 7 8 9 10 8 7 4 10 10 10 9 8 8 9 3 2 3 3 3 3 3 3 2 4
Wind_Direction
221 211 109 163 181 173 180 182 174 171 168 169 175 176 182 153 169 182 185 184 188 188 189 199 191 186 189 195 179 155 184 227 212 330 300 261 314 2 313 264 256 267 280
135 50 138 145 184 171 179 190 179 167 175 179 173 159 160 162 176 190 186 190 186 188 191 188 187 177 165 170 169 153 104 106 154 310 290 359 343 42 38 29 148 101 119
92 108 152 186 183 175 160 178 214 173 168 159 142 110 102 100 123 202 175 190 194 190 179 191 180 171 162 184 164 158 142 136 92 73 343 19 275 314 45 34 23 128 103
7 85 123 177 203 180 163 171 220 188 168 166 165 144 194 182 204 211 185 163 206 201 176 171 164 157 144 158 124 139 160 179 171 230 189 195 195 258 295 125 47 37 111
227 179 181 195 203 193 154 167 195 213 167 168 182 177 193 182 170 180 170 181 206 161 131 150 121 116 232 216 177 190 174 178 164 210 142 181 192 254 263 318 256 282 199
265 252 159 193 148 129 115 145 208 230 171 166 172 185 185 165 189 190 182 181 160 124 163 162 178 171 191 187 186 202 173 207 229 149 185 200 162 175 214 252 247 224 233
281 316 3 151 159 161 161 174 177 197 177 159 163 180 165 176 179 187 163 161 171 155 179 138 160 138 116 149 158 138 132 122 169 232 227 227 221 210 209 214 249 244 189
254 297 326 241 195 185 152 167 180 177 177 175 175 142 172 188 160 160 162 151 142 146 147 134 129 137 137 124 119 109 122 180 253 265 257 255 250 224 217 241 213 272 212
269 287 306 290 186 189 183 166 145 141 147 176 147 150 146 149 156 143 111 112 119 129 128 126 112 98 104 101 102 99 99 96 356 314 312 300 293 280 256 248 230 250 271
264 288 248 258 231 170 131 124 126 146 141 132 136 127 127 120 116 109 106 111 97 87 98 97 104 91 76 69 69 62 53 40 10 14 358 322 303 303 296 284 256 224 251
192 219 251 213 168 111 121 104 97 114 125 119 111 105 95 97 97 95 97 97 95 99 91 86 81 77 69 51 57 58 57 35 356 352 326 313 316 298 308 297 284 274 234
32 332 262 213 146 130 140 133 113 114 110 117 110 106 101 98 93 90 91 94 99 86 94 88 81 73 67 53 55 49 44 37 10 351 342 322 340 312 307 311 301 279 261
24 17 42 60 104 111 120 122 123 120 117 121 116 115 116 112 112 112 110 104 105 97 91 94 95 94 78 73 58 50 33 29 26 19 10 352 346 329 333 323 313 307 293
26 22 26 51 72 108 121 116 103 116 119 124 114 113 120 120 119 122 109 106 104 106 98 87 92 88 88 76 64 53 41 34 31 30 28 14 1 335 327 317 299 282 246
15 33 24 39 62 81 89 100 113 117 119 115 112 117 111 107 105 96 103 106 104 102 106 100 91 93 80 65 64 51 46 41 20 12 7 358 345 342 323 301 302 265 255
355 18 47 52 97 123 139 134 127 125 143 125 121 121 122 115 119 129 120 106 96 94 90 87 87 77 69 54 48 65 46 29 14 340 329 323 329 348 336 333 308 263 247
348 349 355 60 129 143 148 139 137 127 124 124 127 123 128 125 122 119 112 108 107 100 92 84 76 75 60 35 37 44 36 24 357 339 328 320 331 345 357 11 21 21 343
349 339 344 341 271 175 153 129 127 127 134 126 125 128 126 120 124 129 124 117 109 111 120 111 101 61 31 15 9 90 46 4 346 326 319 315 315 311 311 325 329 342 346
322 306 306 290 260 186 159 129 130 133 130 138 141 139 137 143 146 144 142 125 125 123 136 132 107 97 283 308 302 131 80 354 336 323 338 339 323 301 281 6 315 333 351
327 327 310 271 184 186 143 119 123 129 158 163 165 153 155 156 156 145 154 134 129 142 144 123 139 173 250 278 278 190 186 290 322 324 326 334 308 290 254 150 221 286 305
342 350 10 35 3 164 146 148 155 171 157 147 151 153 154 156 165 150 151 137 136 140 143 152 180 230 228 257 268 260 202 236 263 286 304 306 302 305 295 178 181 236 192
354 2 33 33 17 128 137 137 148 159 143 148 159 165 171 164 142 144 142 151 159 158 167 193 255 243 238 249 261 265 258 232 210 234 244 261 275 282 281 262 205 229 174
10 16 51 46 25 31 84 125 117 137 136 141 155 161 139 149 168 162 165 155 163 170 190 219 252 249 257 247 266 267 267 264 211 212 222 249 265 263 260 249 205 228 150
27 23 37 44 45 30 44 49 48 84 120 132 140 146 161 172 164 167 160 172 173 181 189 218 242 249 249 259 249 252 260 272 281 224 239 248 262 250 239 248 274 124 182
30 31 46 52 39 36 41 31 28 48 87 107 132 150 181 186 187 200 189 193 200 182 192 213 206 227 249 243 237 236 241 232 234 211 135 227 237 244 227 233 232 188 200
26 33 36 49 39 46 38 21 14 24 46 61 73 199 198 201 203 207 242 230 222 229 238 231 217 223 241 251 258 260 262 265 242 211 189 224 216 223 219 220 230 212 218